Overview Statistics Trail Chart Weather Telemetry Raw packets
 

This is the latest recevied weather packets stored in our database for station/object W8KHW. If no packets are shown the sender has not sent any weather packets the latest 10 day(s).

<< 4 5 6 7 8 9 10 >>
Time Temp. Humidity Pressure Rain* Wind** Luminosity Snow
1777839934 16.67° C 40% 1015.2 hPa 0 mm - - -
1777839433 16.11° C 41% 1015.6 hPa 0 mm - - -
1777838933 16.67° C 43% 1015.3 hPa 0 mm - - -
1777838433 17.22° C 40% 1015.5 hPa 0 mm - - -
1777837933 16.11° C 39% 1015.4 hPa 0 mm - - -
1777837432 16.11° C 43% 1015.8 hPa 0 mm - - -
1777836932 15.56° C 43% 1015.9 hPa 0 mm - - -
1777836432 16.67° C 39% 1016.1 hPa 0 mm - - -
1777835945 16.67° C 38% 1016.1 hPa 0 mm - - -
1777835431 16.67° C 42% 1016.3 hPa 0 mm - - -
1777834931 16.11° C 39% 1016.5 hPa 0 mm - - -
1777834431 16.67° C 38% 1016.5 hPa 0 mm - - -
1777833931 16.67° C 43% 1017 hPa 0 mm - - -
1777833430 16.67° C 43% 1016.9 hPa 0 mm - - -
1777832950 16.67° C 39% 1017 hPa 0 mm - - -
1777832430 16.11° C 45% 1017.1 hPa 0 mm - - -
1777831930 16.11° C 40% 1017.1 hPa 0 mm - - -
1777831429 15.56° C 40% 1017.4 hPa 0 mm - - -
1777830929 15.56° C 39% 1017.4 hPa 0 mm - - -
1777830429 16.11° C 42% 1017.7 hPa 0 mm - - -
1777829929 15.56° C 39% 1017.8 hPa 0 mm - - -
1777829429 15.56° C 42% 1017.6 hPa 0 mm - - -
1777828929 16.67° C 40% 1017.9 hPa 0 mm - - -
1777828428 15.56° C 38% 1017.9 hPa 0 mm - - -
1777827928 15° C 44% 1017.8 hPa 0 mm - - -

* Rain latest hour (hover to see other rain measurements)
** Current wind speed in m/s (hover to see current wind gust speed)